Location: Arbon
(43.0005°N, 0.7472°E)
Time: 15:48:14
(UTC+00:00)

A-11 Canister half - Pass Details

Date: 27 November 2020
Orbit: 1517 x 1683 km, 47.2° (Epoch: 15 January)

Event Time Altitude Azimuth Distance (km) Brightness Sun altitude
Rises 17:25:50 0° 294° (WNW) 4,922 12.4 -11.0°
Reaches altitude 10° 17:28:59 10° 293° (WNW) 3,941 11.9 -11.6°
Maximum altitude 17:39:08 76° 210° (SSW) 1,726 9.4 -13.3°
Drops below altitude 10° 17:49:11 10° 127° (SE) 3,909 10.8 -15.1°
Sets 17:52:18 0° 126° (SE) 4,880 11.3 -15.7°
